Regional Weather Roundup
Issued by NWS

Home | Current Version | Previous Version | Graphics & Text | Print | Product List | Glossary On
Versions: 1 2 3 4 5 6 7 8 9 10 11 12 13 14 15 16 17 18 19 20 21 22 23 24 25 26 27 28 29 30 31 32 33 34 35 36 37 38 39 40 41 42 43 44 45 46 47 48 49 50
000
ASUS43 KBIS 270702
RWRND

NORTH DAKOTA REGIONAL WEATHER ROUNDUP
NATIONAL WEATHER SERVICE BISMARCK ND
200 AM CDT SAT AUG 27 2016

NOTE: "FAIR" INDICATES FEW OR NO CLOUDS BELOW 12,000 FEET WITH NO
SIGNIFICANT WEATHER AND/OR OBSTRUCTIONS TO VISIBILITY.


NDZ001>003-009>011-017-270800-
NORTHWEST NORTH DAKOTA

CITY           SKY/WX    TMP DP  RH WIND       PRES   REMARKS
WILLISTON      CLOUDY    54  45  71 NE3       29.94S
MINOT          PTCLDY    60  54  80 S9        29.91F
MINOT AFB      CLOUDY    57  53  86 S7        29.90S
$$

NDZ018>021-031>035-040>046-270800-
SOUTHWEST NORTH DAKOTA

CITY           SKY/WX    TMP DP  RH WIND       PRES   REMARKS
BISMARCK       CLEAR     53  51  93 CALM      29.99F
DICKINSON      LGT RAIN  53  47  79 NW14      29.98S
GARRISON         N/A     57  57 100 S12       29.95F
HETTINGER ARPT CLOUDY    52  51  97 N6        30.03R
$$

NDZ004>008-012>016-024-026-027-054-270800-
NORTHEAST NORTH DAKOTA

CITY           SKY/WX    TMP DP  RH WIND       PRES   REMARKS
GRAND FORKS    CLOUDY    56  52  86 S7        30.00F
GRND FRKS AFB  MOCLDY    55  52  89 S6        30.00F
DEVILS LAKE    MOCLDY    59  51  75 SW15      29.98F
$$

NDZ022-023-025-028>030-036>039-047>053-270800-
SOUTHEAST NORTH DAKOTA

CITY           SKY/WX    TMP DP  RH WIND       PRES   REMARKS
FARGO          CLOUDY    63  57  81 SE6       30.02F
JAMESTOWN      CLOUDY    57  55  93 S7        30.00F
$$





USA.gov is the U.S. government's official web portal to all federal, state and local government web resources and services.